EW0482 Weather Reports


Display with metric or nautical units.
time (UTC)temp
F
wind
direction
speed
MPH
gust
MPH
rain 1hr
in
rain 24hr
in
rain mn
in
humidity
%
barometer
mb
20260507103024 56 254 0.0 0.0 0.00 0.00 0.00 1 1005.4
20260507101520 56 254 0.0 0.0 0.00 0.00 0.00 5 1005.3
20260507100016 56 254 0.0 0.0 0.00 0.00 0.00 7 1005.4
20260507094512 57 254 0.0 0.0 0.00 0.00 0.00 8 1005.5
20260507093013 57 254 0.0 0.0 0.00 0.00 0.00 9 1005.5
20260507091504 57 254 0.0 0.0 0.00 0.00 0.00 14 1005.7
20260507090002 57 254 0.0 0.0 0.00 0.00 0.00 14 1005.8
20260507084607 57 254 0.0 0.0 0.00 0.00 0.00 14 1005.9
20260507083058 57 254 0.0 0.0 0.00 0.00 0.00 20 1006.0
20260507081559 57 254 0.0 0.0 0.00 0.00 0.00 25 1006.1
20260507080056 58 254 0.0 0.0 0.00 0.00 0.00 23 1006.1
20260507074557 57 254 0.0 0.0 0.00 0.00 0.00 26 1006.2
20260507073052 58 254 0.0 0.0 0.00 0.00 0.00 30 1006.2
20260507071549 58 254 0.0 0.0 0.00 0.00 0.00 31 1006.3
20260507064553 58 254 0.0 0.0 0.00 0.00 0.00 38 1006.4
20260507063047 59 254 0.0 0.0 0.00 0.00 0.00 37 1006.5
20260507061544 58 254 0.0 0.0 0.00 0.00 0.00 41 1006.4
20260507060047 59 254 0.0 0.0 0.00 0.00 0.00 46 1006.4
20260507054602 59 254 0.0 0.0 0.00 0.00 0.00 47 1006.5
20260507053041 59 254 0.0 0.0 0.00 0.00 0.00 50 1006.4
20260507051547 59 254 0.0 0.0 0.00 0.00 0.00 51 1006.4
20260507050047 59 254 0.0 0.0 0.00 0.00 0.00 54 1006.3
20260507044543 59 254 0.0 0.0 0.00 0.00 0.00 55 1006.4
20260507043039 60 254 0.0 0.0 0.00 0.00 0.00 57 1006.2
20260507041542 60 254 0.0 1.0 0.00 0.00 0.00 60 1006.2
20260507040042 60 254 0.0 3.0 0.00 0.00 0.00 64 1006.2
20260507034536 60 257 0.0 3.0 0.00 0.00 0.00 67 1005.9
20260507033038 60 259 0.0 1.0 0.00 0.00 0.00 70 1005.8
20260507031539 61 252 0.0 2.0 0.00 0.00 0.00 73 1005.6
20260507030033 61 252 0.0 4.0 0.00 0.00 0.00 75 1005.6
20260507024537 62 254 0.0 4.0 0.00 0.00 0.00 76 1005.4
20260507023032 62 253 0.0 1.0 0.00 0.00 0.00 76 1005.2
20260507021536 63 246 0.0 5.0 0.00 0.00 0.00 74 1005.1
20260507020036 64 179 0.0 4.0 0.00 0.00 0.00 73 1005.0
20260507014532 64 247 1.0 9.0 0.00 0.00 0.00 73 1005.0
20260507013033 65 240 0.0 5.0 0.00 0.00 0.00 72 1004.9
20260507011531 66 240 0.0 8.0 0.00 0.00 0.00 71 1004.9
20260507010037 67 229 0.0 5.0 0.00 0.00 0.00 71 1004.7
20260507004528 67 198 0.0 10.0 0.00 0.00 0.00 70 1004.8
20260507003026 67 248 0.0 8.0 0.00 0.00 0.00 69 1004.8
20260507001535 67 261 1.0 11.0 0.00 0.00 0.00 69 1004.8
20260507000032 68 249 1.0 8.0 0.00 0.00 0.00 68 1004.7
20260506234524 68 178 0.0 6.0 0.00 0.00 0.00 67 1004.8
20260506233023 69 235 1.0 8.0 0.00 0.00 0.00 68 1004.8
20260506231522 69 234 1.0 9.0 0.00 0.00 0.00 67 1004.9
20260506230024 69 259 3.0 10.0 0.00 0.00 0.00 66 1004.9
20260506224519 69 175 1.0 7.0 0.00 0.00 0.00 65 1005.1
20260506223017 68 244 3.0 9.0 0.00 0.00 0.00 66 1005.4
20260506221515 68 227 1.0 8.0 0.00 0.00 0.00 66 1005.4
20260506220014 68 269 3.0 10.0 0.00 0.00 0.00 66 1005.7
20260506214513 68 210 0.0 8.0 0.00 0.00 0.00 66 1005.8
20260506213010 69 248 1.0 7.0 0.00 0.00 0.00 67 1006.0
20260506211509 69 234 1.0 7.0 0.00 0.00 0.00 68 1006.1
20260506210007 68 257 2.0 8.0 0.00 0.00 0.00 68 1006.2
20260506204514 69 254 2.0 7.0 0.00 0.00 0.00 66 1006.3
20260506203006 69 242 2.0 8.0 0.00 0.00 0.00 66 1006.4
20260506201509 70 241 1.0 8.0 0.00 0.00 0.00 67 1006.5
20260506200010 70 250 0.0 7.0 0.00 0.00 0.00 67 1006.7
20260506194505 69 252 1.0 7.0 0.00 0.00 0.00 67 1006.7
20260506193005 70 241 2.0 6.0 0.00 0.00 0.00 66 1006.9
20260506191504 70 245 0.0 8.0 0.00 0.00 0.00 65 1007.0
20260506190004 71 257 1.0 5.0 0.00 0.00 0.00 63 1007.1
20260506184502 72 166 0.0 2.0 0.00 0.00 0.00 63 1007.2
20260506183002 72 246 0.0 4.0 0.00 0.00 0.00 62 1007.2
20260506181608 71 217 0.0 3.0 0.00 0.00 0.00 61 1007.3
20260506180058 70 66 0.0 2.0 0.00 0.00 0.00 63 1007.3
20260506174555 69 77 0.0 4.0 0.00 0.00 0.00 63 1007.4
20260506173125 69 55 0.0 3.0 0.00 0.00 0.00 63 1007.4
20260506171558 69 134 0.0 3.0 0.00 0.00 0.00 64 1007.4
20260506170106 68 122 0.0 1.0 0.00 0.00 0.00 68 1007.3
20260506164549 67 107 0.0 1.0 0.00 0.00 0.00 68 1007.3
20260506163054 66 86 0.0 1.0 0.00 0.00 0.00 68 1007.4
20260506161546 65 85 0.0 1.0 0.00 0.00 0.00 71 1007.5
20260506160045 65 82 0.0 0.0 0.00 0.00 0.00 73 1007.5
20260506154600 64 111 0.0 2.0 0.00 0.00 0.00 74 1007.5
20260506153138 63 113 0.0 2.0 0.00 0.00 0.00 74 1007.5
20260506151534 62 148 0.0 1.0 0.00 0.00 0.00 75 1007.4
20260506150032 62 61 0.0 1.0 0.00 0.00 0.00 74 1007.5
20260506144527 60 61 0.0 2.0 0.00 0.00 0.00 74 1007.6
20260506143028 60 209 0.0 1.0 0.00 0.00 0.00 74 1007.5
20260506141522 59 255 0.0 0.0 0.00 0.00 0.00 72 1007.3
20260506140021 57 253 0.0 0.0 0.00 0.00 0.00 66 1007.2
20260506134516 55 253 0.0 0.0 0.00 0.00 0.00 53 1007.1
20260506133013 54 253 0.0 0.0 0.00 0.00 0.00 55 1007.1
20260506131514 54 253 0.0 0.0 0.00 0.00 0.00 57 1006.9
20260506130009 54 253 0.0 0.0 0.00 0.00 0.00 57 1006.7
20260506124508 54 252 0.0 0.0 0.00 0.00 0.00 55 1006.6
20260506123007 55 252 0.0 0.0 0.00 0.00 0.00 57 1006.5
20260506121506 55 252 0.0 0.0 0.00 0.00 0.00 58 1006.4
20260506120005 55 252 0.0 0.0 0.00 0.00 0.00 59 1006.3
20260506114504 55 252 0.0 0.0 0.00 0.00 0.00 60 1006.3
20260506113003 55 252 0.0 0.0 0.00 0.00 0.00 61 1006.2
20260506111503 55 252 0.0 0.0 0.00 0.00 0.00 62 1006.2
20260506110002 55 252 0.0 0.0 0.00 0.00 0.00 63 1006.2
20260506104500 55 252 0.0 0.0 0.00 0.00 0.00 63 1006.2